Regional Weather Roundup
Issued by NWS Huntsville, AL

Home | Current Version | Previous Version | Text Only | Print | Product List | Glossary On
Versions: 1 2 3 4 5 6 7 8 9 10 11 12 13 14 15 16 17 18 19 20 21 22 23 24 25 26 27 28 29 30 31 32 33 34 35 36 37 38 39 40 41 42 43 44 45 46 47 48 49
000
ASUS44 KHUN 230010
RWRHUN

WEATHER ROUNDUP FOR THE TENNESSEE VALLEY
NATIONAL WEATHER SERVICE HUNTSVILLE AL
700 PM CDT FRI MAY 22 2015

ALZ001>004-230100-
NORTHWEST ALABAMA

CITY           SKY/WX    TMP DP  RH WIND       PRES   REMARKS
COURTLAND HCN    N/A     72 N/A N/A E6          N/A
RUSSELLVILLE     N/A     70 N/A N/A MISG        N/A
SHOALS AIRPORT PTCLDY    73  47  39 NE3       30.23S
6HR MIN TEMP:  69; 6HR MAX TEMP:  76;

SHOALS TVA RES   N/A     72 N/A N/A MISG        N/A
$$

ALZ005>007-016-230100-
NORTH CENTRAL ALABAMA

CITY           SKY/WX    TMP DP  RH WIND       PRES   REMARKS
CULLMAN AG STN   N/A     72 N/A N/A N5          N/A
DECATUR AP     CLEAR     73  46  38 N6        30.23R
6HR MIN TEMP:  70; 6HR MAX TEMP:  76;

HUNTSVILLE AP  PTCLDY    76  46  34 N7        30.22S
6HR MIN TEMP:  73; 6HR MAX TEMP:  79;

MERIDIANVILLE  CLEAR     70  41  35 N6        30.24R
REDSTONE ARSN  CLEAR     70  48  46 N7        30.21S
VINEMONT AP    FAIR      70  51  49 N3        30.25S
$$

ALZ008>010-230100-
NORTHEAST ALABAMA

CITY           SKY/WX    TMP DP  RH WIND       PRES   REMARKS
ALBERTVILLE    CLEAR     70  55  60 N5        30.22S
FORT PAYNE     CLEAR     70  43  37 N3        30.22R
SCOTTSBORO HCN   N/A     72 N/A N/A MISG        N/A
VALLEY HEAD      N/A     68 N/A N/A MISG        N/A
$$

TNZ076-096-097-230100-
SOUTHEASTERN MIDDLE TENNESSEE

CITY           SKY/WX    TMP DP  RH WIND       PRES   REMARKS
TULLAHOMA      CLEAR     70  37  30 CALM      30.27R
WINCHESTER     CLEAR     68  46  45 N7        30.25R
$$

...SURROUNDING SITES...

CITY           SKY/WX    TMP DP  RH WIND       PRES   REMARKS
ATLANTA        PTCLDY    76  49  38 NE7       30.20R
ANNISTON       CLEAR     75  51  43 N8        30.20R
BIRMINGHAM     CLEAR     74  52  46 N7        30.22R
CHATTANOOGA    PTCLDY    72  41  32 N9        30.23S
CORINTH        FAIR      70  48  46 NE5       30.22S
DALTON         CLEAR     70  46  43 N5        30.22S
GADSDEN        CLEAR    N/A N/A N/A CALM      30.20R
GOLDEN TRNGL   CLEAR     73  52  46 NE6       30.20R
HALEYVILLE     FAIR      71  51  49 CALM      30.26R
JACKSON TN     PTSUNNY   70  51  51 CALM      30.23S
LEWISBURG      FAIR      68  42  38 N3        30.25R
MEMPHIS        CLOUDY    72  47  40 NE9       30.22F
NASHVILLE      PTCLDY    72  43  35 E3        30.26R
OXFORD MS      FAIR      68  48  49 E7        30.23F
ROME           CLEAR     73  46  38 N6        30.21R
SAVANNAH       CLEAR     72  32  23 CALM      30.24S
TUPELO         CLEAR     73  45  36 E8        30.21S
TUSCALOOSA     CLEAR     76  48  37 NE9       30.20R
$$

...GULF COAST WEATHER...

CITY           SKY/WX    TMP DP  RH WIND       PRES   REMARKS
GULFPORT       CLEAR     79  66  64 S3        30.13S
PASCAGOULA     PTCLDY    81  65  58 N3        30.14S
MOBILE         PTCLDY    79  61  53 NE7       30.15F
GULF SHORES    CLEAR     77  66  69 CALM      30.14S
PENSACOLA      PTCLDY    78  63  59 SW6       30.13S
DESTIN         CLEAR     81  61  50 W3        30.13S
PANAMA CITY    CLEAR     82  65  57 NW8       30.12R
APPALACHICOLA  CLEAR     83  68  60 W8        30.12R
$$



USA.gov is the U.S. government's official web portal to all federal, state and local government web resources and services.